Résultats sport de masse course à pied

Résultats : Les Foulées du Bugatti 2015 - Marathon Relais

Classement Nom, prénom Catégorie Sexe Club Temps
201 PHARMA ANGERS . E6 X 00:32:48
202 LES HERISSONS . E4 X 00:32:52
203 AKIOLIS . E2 X 00:32:53
204 RDV DU DIMANCHE . E6 X 00:32:56
205 MANCEAUX DU 49 . E3 X 00:32:58
206 FADELSEVAL . E4 X 00:33:02
207 CHRISTMAS TEAM . E3 X 00:33:02
208 MACH'TEAM . E6 X 00:33:06
209 TEAM SPONDYLARTHRITES . E3 X 00:33:07
210 ROGUIJAM . E4 X 00:33:14
211 PREFEO . E4 X 00:33:15
212 AKIORUN . E4 X 00:33:16
213 ONDE 6MIXTE . E6 X 00:33:17
214 LIONS CLUB LE MANS PLANTAGENET . E6 X 00:33:19
215 TEAM INITIATIVES-COEUR . E6 X 00:33:20
216 REVERBERT . E4 X 00:33:20
217 SNOOPY . E4 X 00:33:23
218 TRANSDEV STAO . E4 X 00:33:24
219 ACTIV'MANS 1 . E4 X 00:33:25
220 YOPLAIT 2 . E3 X 00:33:25
221 TEAM GUION . E4 X 00:33:26
222 LES GAZELLES DE CISSE . E4 X 00:33:26
223 HACFLO'S . E3 X 00:33:27
224 COURIRAULUDE TEAM 6 . E6 X 00:33:40
225 O TRIO . E3 X 00:33:42
226 POWER RUNNER . E6 X 00:33:43
227 SLIDERS . E3 X 00:33:43
228 PRIMAGAZ . E6 F 00:33:45
229 LES Z'AMIS . E6 X 00:33:48
230 ARTUS RH . E6 X 00:33:50
231 LES FURIEUX . E2 X 00:33:54
232 LES HAWAIIAN TROPIC BOYS . E4 X 00:33:56
233 LES RUN'MINTONS . E6 X 00:34:00
234 JOGGING CLUB LEROY 2 . E3 X 00:34:08
235 JOGGING CLUG LEROY SOMER . E3 X 00:34:09
236 AVENGERS 1 . E4 X 00:34:09
237 FORCE ROUGE . E2 X 00:34:10
238 AVENGERS 2 . E4 X 00:34:11
239 PADAGIRLS . E6 X 00:34:12
240 THELEM ASSURANCE . E4 X 00:34:12
241 MAD GUYS . E4 X 00:34:16
242 LES GAZELLES . E4 X 00:34:17
243 LES DEBILES 123 . E3 X 00:34:18
244 LES GAZELLES DE CISSE . E6 X 00:34:28
245 LES ADAPSIENNES . E6 F 00:34:39
246 LES ANGEVINS . E4 X 00:34:41
247 CH'TIS VENDEE . E2 X 00:34:41
248 LES MIGNONS 53 . E4 X 00:34:42
249 VILL'ART RUNNING . E3 X 00:34:52
250 LES FLECHES D'ALENCON COURT . E4 X 00:34:57